Wind_Speed
13 12 11 10 8 5 3 5 10 15 16 15 12 11 11 10 10 10 9 10 9 9 9 9 8 8 8 8 8 8 8 8 8 8 8 7 7 6 6 5 4 3 2 1 0 1 1 2 2
14 13 12 11 9 4 1 8 16 17 18 14 12 12 12 13 12 12 11 12 11 10 10 10 10 10 10 10 10 10 10 10 10 10 10 9 8 8 8 7 6 5 4 3 2 1 2 2 2
14 13 12 11 8 4 6 14 20 20 17 14 13 14 13 14 13 12 12 13 12 11 11 11 11 11 11 11 12 12 12 12 12 11 11 11 10 10 10 9 8 6 5 4 3 3 3 3 3
14 13 12 11 8 7 12 19 21 20 17 15 15 14 14 14 14 13 13 13 12 11 12 11 12 13 13 13 13 14 13 14 14 13 13 13 13 12 11 10 9 8 7 6 6 5 4 4 5
13 13 12 10 8 12 20 22 21 18 18 16 17 16 15 14 14 13 13 13 13 11 12 12 13 13 14 15 15 15 15 16 16 15 15 15 14 13 13 12 11 10 10 9 8 7 6 6 6
12 12 11 7 8 17 23 24 19 16 17 17 18 16 15 14 14 14 13 13 13 12 12 13 14 14 15 15 16 17 17 18 18 17 17 16 16 15 14 14 13 12 12 11 10 9 8 8 8
13 13 10 7 10 19 24 22 17 15 16 18 17 15 15 14 15 14 14 14 14 13 13 13 13 14 16 16 17 18 19 19 19 19 19 18 17 17 16 15 15 14 14 13 12 11 10 10 10
13 13 11 9 12 19 25 21 17 16 16 18 18 16 15 14 14 14 15 15 15 15 14 14 14 15 16 17 19 20 21 21 21 21 21 20 19 19 18 17 17 16 16 15 14 14 13 12 12
12 11 9 9 13 18 24 21 17 16 17 20 19 17 16 15 14 14 16 16 15 15 14 14 15 16 17 17 19 20 21 22 22 22 22 22 21 20 20 20 19 18 18 17 16 15 15 14 13
11 10 8 11 16 20 21 19 18 16 18 20 20 19 17 16 15 16 16 16 16 16 15 15 16 17 17 18 19 20 21 22 22 22 23 24 23 22 21 21 20 20 19 19 18 17 17 16 16
13 14 15 19 22 21 20 17 18 17 18 21 21 19 16 15 17 17 17 17 16 16 17 17 17 19 19 19 20 20 21 22 22 23 24 24 24 23 22 22 22 21 21 20 19 19 19 18 18
15 17 19 21 23 22 19 17 19 18 19 20 22 19 17 16 18 18 18 17 17 17 18 19 19 20 19 19 21 21 22 23 24 24 25 25 25 24 24 23 23 23 21 21 21 21 20 20 19
16 18 20 20 20 20 21 20 19 19 21 21 22 20 18 17 18 18 19 19 18 18 19 19 20 21 20 21 22 23 24 25 25 24 25 24 25 25 25 26 24 24 23 22 22 22 22 21 21
16 18 19 19 19 20 20 18 18 20 22 22 22 18 17 18 18 18 18 18 18 18 18 19 20 22 22 23 24 24 24 24 24 25 24 23 24 25 25 24 24 24 24 24 23 23 22 23 22
16 17 17 18 18 19 18 17 19 20 22 22 21 20 20 20 19 19 19 20 20 18 18 20 21 22 23 23 23 24 24 23 24 24 24 23 23 25 25 25 26 25 24 24 25 24 24 24 23
14 15 15 15 16 18 16 17 18 20 22 22 21 21 21 21 20 19 20 20 19 19 20 21 22 23 23 23 23 23 23 23 23 23 24 25 25 24 25 25 26 26 26 26 26 25 25 24 24
12 13 13 14 18 17 16 16 19 22 22 22 20 21 22 20 20 19 20 20 20 20 21 22 22 22 22 22 23 22 22 22 22 23 25 27 25 25 25 25 26 25 26 26 25 25 25 24 24
11 12 12 15 19 18 16 17 20 22 22 22 20 20 22 22 20 19 19 20 21 21 22 22 23 23 23 23 24 24 24 23 23 24 25 25 25 25 26 26 26 26 25 24 24 25 24 24 24
12 13 14 16 18 18 16 17 20 23 23 22 19 20 22 23 21 20 19 20 22 22 22 24 24 23 23 24 24 24 24 24 24 24 24 24 24 25 25 25 25 24 24 24 25 24 24 24 24
14 15 15 17 18 18 16 18 19 22 22 22 21 22 22 22 21 21 21 21 21 22 23 24 24 24 25 24 25 25 25 25 25 25 24 23 23 23 23 24 24 24 25 25 25 25 24 24 24
15 16 17 17 19 18 17 19 21 22 23 22 20 22 24 23 22 21 20 21 22 23 23 23 24 25 25 25 25 25 25 25 25 24 23 23 23 23 23 24 25 25 25 24 24 24 23 23 23
16 16 17 16 17 18 18 19 22 23 22 22 21 22 24 23 22 21 21 20 21 21 22 22 24 24 25 25 26 25 25 25 24 24 23 23 23 24 25 24 25 25 25 24 24 25 24 24 23
15 16 17 17 17 18 18 19 21 23 24 24 24 24 23 22 23 22 21 20 21 21 22 23 24 24 24 25 25 25 25 24 23 24 24 23 23 24 24 25 26 26 26 25 25 25 25 24 24
16 16 16 17 17 20 19 20 23 25 25 25 24 22 21 21 22 22 22 22 22 23 24 24 24 24 25 25 25 25 25 25 24 24 24 23 23 24 24 25 26 26 26 26 25 25 25 24 24
15 15 15 17 19 21 19 21 24 24 25 23 21 21 20 19 21 22 22 22 23 24 24 24 25 26 26 25 25 26 26 25 25 25 25 24 23 24 23 24 24 24 25 26 26 26 25 25 26
15 16 16 18 19 19 18 21 24 23 24 22 21 21 20 20 21 22 23 22 22 24 25 26 27 28 28 28 27 26 26 26 26 26 26 25 24 24 23 23 23 24 25 25 26 26 26 26 26
15 16 16 18 18 18 19 22 23 22 21 20 21 21 21 22 23 23 23 23 23 24 25 26 27 28 28 27 26 26 27 27 26 26 26 25 25 25 24 24 23 24 24 25 26 26 26 26 27
16 16 17 18 17 17 18 21 21 21 19 19 20 21 21 22 23 23 24 25 25 25 25 26 27 27 27 27 27 27 27 27 27 27 26 26 25 24 25 25 25 25 26 27 27 27 28 28 28
16 16 17 18 18 18 19 20 20 19 19 18 20 21 21 22 24 24 25 25 25 25 26 26 27 27 27 27 27 27 27 27 27 26 25 25 25 25 25 25 25 26 26 27 28 28 29 29 29
18 18 18 20 20 19 21 22 21 20 19 19 20 22 22 23 24 25 25 25 25 26 27 27 27 27 27 27 27 27 27 27 27 26 26 26 26 25 25 25 25 26 26 26 26 27 28 28 28
Wind_Direction
250 247 244 241 235 222 200 183 221 237 245 248 246 245 247 251 264 269 271 275 281 280 279 275 274 273 268 263 260 259 256 256 260 262 263 262 257 253 245 243 240 234 230 218 163 55 34 28 26
248 245 241 237 231 202 208 224 229 242 252 254 251 251 253 259 264 265 269 273 279 280 277 276 274 274 272 266 264 262 258 255 256 256 258 259 259 256 252 250 251 248 245 244 252 286 321 332 332
245 242 238 230 219 170 214 236 241 251 258 257 253 254 256 258 263 267 269 272 275 278 277 276 271 271 273 270 266 264 260 256 255 254 255 257 258 257 255 253 253 251 250 251 257 271 290 302 302
242 237 233 228 205 202 215 229 244 260 264 258 256 255 259 259 263 267 269 271 273 275 278 277 274 272 274 272 267 263 259 256 255 255 254 255 256 257 256 254 254 254 253 254 256 264 276 285 286
239 235 229 221 206 221 232 236 248 259 266 262 257 256 257 261 266 268 270 274 274 275 278 277 275 273 273 272 268 264 261 257 255 254 255 255 255 256 257 256 256 256 257 258 259 263 271 277 280
233 227 219 210 219 234 241 245 249 250 261 263 262 257 259 265 267 268 270 273 277 277 277 277 275 272 271 270 265 262 261 261 258 254 255 256 255 255 257 256 255 256 259 261 262 265 271 275 277
231 220 205 199 232 247 251 255 254 249 253 258 252 255 262 269 269 269 272 275 278 276 275 276 273 271 272 272 268 263 261 261 261 257 256 255 254 254 256 257 256 257 259 261 264 267 271 274 276
230 227 207 194 229 249 259 261 258 250 248 250 255 258 263 267 267 271 274 278 279 277 275 274 275 275 274 274 271 266 262 262 261 257 256 254 252 253 255 256 256 257 259 260 264 268 271 273 275
227 222 210 204 230 246 258 263 258 250 250 255 257 267 269 265 271 275 276 278 278 277 277 279 282 279 278 276 273 269 265 263 261 257 256 255 253 253 254 255 256 257 258 260 263 267 271 274 275
219 207 200 221 227 237 253 261 261 257 256 257 263 268 264 268 273 276 276 276 277 277 279 281 284 280 278 277 275 271 268 264 261 258 258 257 254 253 254 254 256 257 259 261 263 266 269 272 274
215 209 209 225 228 238 251 258 260 260 256 260 264 264 262 265 271 275 275 274 276 278 281 284 285 282 277 275 276 272 269 263 261 260 260 259 253 252 253 253 254 255 257 260 263 266 269 270 271
219 220 228 235 239 245 250 252 255 260 257 257 256 257 262 268 271 271 273 273 273 276 280 283 286 284 278 276 277 275 272 268 264 262 262 260 254 251 251 252 255 256 259 261 263 264 266 267 268
230 237 242 247 251 250 248 247 251 256 259 258 256 260 266 265 265 267 270 271 275 280 280 282 284 286 283 283 280 277 272 270 267 263 262 261 259 256 253 253 255 256 259 261 263 263 264 264 265
239 245 250 253 252 251 252 255 255 255 259 263 264 265 266 267 266 268 270 270 275 278 281 283 283 282 283 284 283 278 278 273 270 268 265 265 260 256 255 254 255 260 262 262 264 263 264 264 264
240 247 253 255 256 256 257 257 257 257 259 263 263 265 263 263 263 266 270 271 272 275 281 283 282 283 284 286 287 280 278 276 271 270 268 268 265 261 260 256 260 263 262 264 265 264 266 266 265
244 247 251 260 261 258 257 258 258 258 260 264 265 265 264 264 263 267 270 274 275 277 281 283 283 284 285 285 286 281 277 276 273 271 269 269 267 263 260 261 264 263 263 265 266 267 268 267 266
246 248 246 252 261 258 253 250 252 258 262 264 266 268 268 266 265 265 267 271 273 276 280 282 284 285 285 285 285 283 280 280 278 275 273 270 268 264 262 264 264 265 267 268 266 267 270 267 267
241 248 245 242 255 259 256 251 251 256 260 264 265 267 267 267 266 261 264 269 273 277 279 281 284 286 285 285 286 286 284 283 282 279 273 267 266 264 264 266 264 266 268 267 266 268 269 269 270
230 237 242 241 247 258 258 256 257 255 259 265 265 265 268 268 264 263 263 270 275 278 279 280 283 285 286 286 287 288 287 286 286 285 278 273 269 266 266 266 267 266 266 265 266 266 269 271 270
231 233 238 242 241 246 247 251 254 259 263 263 263 268 271 266 264 264 266 273 278 279 281 282 283 285 286 287 288 290 287 287 289 287 282 276 272 270 270 270 269 268 268 267 267 267 270 271 273
228 228 230 237 243 249 249 249 252 257 263 266 265 267 271 270 269 271 272 275 279 278 279 282 284 285 286 287 287 289 287 287 286 284 282 280 276 271 271 272 270 270 270 269 269 268 270 271 272
229 229 228 231 242 247 256 252 256 258 262 263 265 266 268 270 272 272 272 275 278 280 281 282 284 286 286 287 288 287 286 286 285 284 282 277 277 274 270 272 273 273 272 270 270 271 272 271 272
226 230 233 232 237 242 251 254 256 259 259 263 264 267 269 270 271 272 273 275 277 280 284 284 285 286 286 287 288 287 285 286 286 284 281 279 279 278 277 274 272 273 273 273 272 271 273 273 274
226 227 234 236 239 244 247 253 256 257 265 264 264 267 268 271 272 273 274 275 277 280 283 284 285 284 286 286 285 286 287 288 286 283 283 281 281 281 278 276 274 273 273 272 272 271 273 273 274
228 225 237 244 246 248 246 248 253 258 267 268 267 268 269 270 271 275 275 275 278 281 283 285 285 285 285 284 284 285 287 287 287 287 287 286 284 281 280 278 277 277 274 271 271 270 271 272 274
232 231 236 249 253 251 248 251 258 262 262 267 270 270 271 274 276 277 276 276 280 282 284 286 286 284 283 284 284 285 287 287 286 287 287 287 285 283 281 279 278 277 275 274 273 273 273 273 274
233 231 240 253 258 255 250 252 257 258 259 261 267 272 275 276 276 276 277 279 282 284 285 285 286 283 282 282 283 286 288 287 287 286 285 284 283 282 283 283 281 279 277 276 276 275 275 275 274
243 236 235 250 262 264 261 261 260 263 269 267 273 279 279 277 277 278 278 279 282 284 286 286 287 287 287 286 286 287 287 287 287 286 285 284 283 283 283 282 282 280 279 278 278 277 276 275 275
242 243 242 247 254 263 271 273 273 273 272 274 281 280 278 280 282 281 280 281 281 284 286 288 289 290 289 287 286 286 286 285 286 285 285 285 285 285 284 281 281 280 280 280 279 278 276 275 274
238 237 242 246 247 255 264 273 273 273 273 274 279 279 279 280 282 281 281 281 282 284 286 287 288 288 288 287 285 284 284 284 284 285 285 285 285 285 285 283 282 281 280 280 279 279 277 275 274
Height
5894 5896 5898 5900 5903 5905 5907 5910 5910 5908 5907 5907 5907 5907 5907 5906 5908 5911 5909 5907 5909 5909 5909 5909 5909 5909 5910 5910 5910 5910 5910 5910 5910 5910 5910 5910 5910 5909 5909 5909 5908 5908 5907 5907 5907 5907 5906 5906 5906
5893 5894 5896 5899 5902 5903 5907 5909 5908 5905 5904 5905 5906 5906 5906 5905 5906 5907 5907 5907 5908 5908 5908 5908 5908 5908 5908 5908 5908 5908 5908 5908 5908 5908 5909 5909 5909 5908 5908 5908 5908 5907 5907 5907 5907 5906 5906 5906 5906
5890 5892 5895 5897 5900 5903 5908 5907 5904 5903 5902 5903 5904 5903 5904 5904 5905 5905 5905 5905 5906 5906 5906 5907 5907 5907 5907 5907 5907 5907 5907 5907 5907 5907 5907 5907 5907 5907 5907 5907 5907 5907 5906 5906 5906 5906 5906 5906 5905
5888 5891 5894 5897 5898 5901 5903 5903 5900 5900 5901 5901 5901 5901 5901 5902 5902 5903 5903 5903 5904 5905 5904 5905 5905 5905 5905 5904 5904 5904 5904 5904 5905 5905 5905 5905 5905 5905 5905 5905 5905 5905 5905 5905 5905 5905 5905 5905 5905
5886 5889 5892 5894 5897 5900 5899 5898 5898 5899 5899 5899 5898 5898 5898 5900 5900 5900 5901 5901 5902 5903 5902 5903 5903 5903 5902 5902 5902 5902 5902 5902 5902 5902 5902 5903 5903 5903 5903 5904 5904 5904 5904 5904 5904 5904 5904 5904 5904
5884 5887 5890 5892 5896 5897 5896 5895 5895 5897 5897 5895 5894 5895 5894 5897 5898 5898 5898 5898 5899 5900 5900 5900 5900 5900 5899 5899 5899 5899 5899 5899 5899 5900 5900 5900 5900 5901 5901 5901 5902 5902 5902 5902 5902 5902 5902 5902 5902
5882 5884 5886 5891 5896 5895 5892 5892 5892 5893 5895 5893 5889 5889 5891 5894 5895 5896 5896 5896 5896 5897 5897 5897 5897 5897 5896 5896 5896 5896 5896 5896 5896 5896 5897 5897 5897 5898 5899 5899 5899 5900 5900 5900 5901 5900 5901 5901 5901
5879 5882 5884 5888 5893 5893 5888 5889 5890 5891 5892 5889 5884 5886 5889 5892 5892 5893 5893 5893 5894 5894 5894 5894 5894 5894 5893 5893 5893 5892 5892 5892 5893 5893 5893 5894 5894 5895 5895 5896 5897 5897 5898 5898 5898 5898 5899 5899 5899
5877 5881 5883 5887 5890 5890 5885 5886 5887 5888 5888 5886 5882 5885 5888 5888 5889 5890 5890 5890 5891 5891 5891 5891 5891 5890 5890 5890 5889 5888 5888 5889 5889 5889 5890 5890 5891 5891 5892 5893 5893 5894 5895 5895 5896 5896 5896 5896 5896
5875 5878 5882 5885 5886 5885 5882 5883 5884 5885 5885 5883 5882 5884 5885 5886 5887 5887 5887 5887 5887 5887 5888 5888 5888 5886 5886 5886 5885 5885 5884 5884 5885 5885 5885 5886 5887 5888 5888 5889 5890 5891 5891 5892 5893 5893 5893 5894 5894
5872 5875 5876 5878 5879 5880 5879 5880 5880 5881 5882 5880 5879 5880 5880 5883 5884 5884 5884 5883 5883 5884 5884 5885 5884 5883 5883 5882 5881 5880 5879 5879 5880 5880 5881 5882 5883 5883 5884 5885 5886 5887 5888 5888 5889 5890 5890 5890 5891
5869 5871 5872 5873 5875 5876 5876 5877 5877 5877 5878 5876 5874 5875 5876 5879 5880 5880 5880 5879 5879 5880 5881 5881 5881 5879 5878 5879 5878 5876 5876 5875 5875 5875 5876 5876 5878 5879 5879 5880 5882 5883 5884 5884 5885 5886 5886 5887 5887
5866 5867 5868 5869 5871 5872 5872 5872 5873 5874 5873 5872 5870 5872 5874 5875 5875 5876 5876 5876 5876 5877 5877 5877 5877 5875 5874 5875 5874 5873 5873 5872 5871 5870 5870 5871 5873 5874 5875 5875 5877 5878 5879 5880 5881 5881 5882 5883 5883
5863 5864 5864 5866 5867 5867 5868 5868 5869 5870 5870 5870 5869 5868 5870 5871 5871 5872 5872 5872 5872 5872 5873 5873 5873 5872 5871 5871 5869 5869 5868 5866 5866 5865 5865 5866 5868 5869 5869 5870 5872 5873 5874 5875 5875 5875 5877 5878 5878
5859 5860 5861 5862 5863 5863 5865 5866 5866 5866 5866 5866 5866 5865 5867 5867 5867 5869 5868 5868 5867 5867 5868 5869 5869 5868 5867 5867 5865 5864 5864 5862 5863 5863 5863 5862 5863 5863 5865 5866 5868 5869 5869 5870 5871 5871 5872 5873 5873
5856 5857 5858 5859 5860 5860 5863 5863 5863 5862 5861 5861 5863 5863 5863 5863 5862 5864 5865 5865 5864 5865 5866 5866 5865 5864 5863 5863 5862 5861 5860 5859 5859 5860 5859 5859 5859 5858 5860 5861 5863 5863 5864 5865 5866 5867 5867 5867 5868
5853 5855 5856 5858 5857 5857 5859 5860 5859 5859 5858 5857 5858 5859 5859 5859 5859 5859 5860 5862 5862 5862 5862 5862 5861 5861 5860 5859 5858 5858 5856 5856 5855 5854 5854 5854 5854 5854 5855 5856 5857 5858 5859 5859 5860 5861 5861 5862 5862
5852 5853 5855 5856 5855 5854 5855 5856 5855 5855 5855 5853 5852 5854 5855 5856 5856 5854 5854 5857 5858 5858 5858 5858 5857 5857 5856 5855 5854 5854 5852 5852 5851 5850 5849 5848 5849 5849 5850 5851 5852 5853 5854 5854 5855 5856 5856 5857 5857
5850 5851 5853 5854 5854 5852 5852 5853 5851 5851 5851 5850 5849 5850 5851 5851 5852 5850 5850 5853 5853 5854 5854 5853 5853 5852 5851 5851 5850 5849 5848 5847 5846 5845 5844 5844 5844 5844 5844 5846 5846 5847 5848 5849 5850 5850 5850 5851 5851
5846 5848 5850 5851 5849 5850 5850 5850 5850 5847 5847 5848 5847 5846 5846 5846 5847 5848 5848 5848 5848 5849 5849 5849 5848 5847 5846 5846 5845 5844 5843 5842 5841 5840 5839 5839 5839 5839 5840 5841 5841 5842 5843 5843 5844 5845 5845 5845 5846
5843 5845 5847 5848 5846 5846 5847 5848 5846 5845 5844 5844 5844 5843 5843 5843 5843 5843 5843 5843 5844 5844 5844 5844 5843 5842 5841 5841 5840 5839 5838 5837 5837 5836 5835 5835 5834 5834 5835 5835 5836 5836 5837 5838 5838 5839 5839 5840 5840
5839 5841 5842 5843 5844 5843 5845 5844 5843 5842 5841 5840 5840 5839 5839 5839 5839 5839 5839 5839 5839 5839 5839 5839 5838 5837 5836 5835 5835 5834 5833 5833 5832 5831 5830 5830 5830 5829 5829 5830 5830 5831 5831 5832 5832 5833 5833 5834 5834
5835 5838 5838 5839 5840 5840 5841 5841 5840 5837 5836 5836 5836 5835 5835 5835 5835 5835 5835 5835 5835 5835 5835 5834 5833 5832 5831 5830 5829 5828 5828 5827 5826 5825 5824 5824 5824 5824 5824 5824 5824 5825 5825 5825 5826 5827 5827 5828 5828
5831 5833 5834 5835 5836 5836 5837 5837 5835 5832 5832 5831 5831 5831 5830 5831 5831 5831 5831 5831 5831 5831 5830 5829 5828 5827 5827 5825 5824 5823 5822 5822 5821 5820 5819 5818 5819 5819 5819 5818 5818 5819 5819 5819 5820 5821 5821 5821 5822
5828 5830 5831 5831 5831 5832 5832 5831 5831 5829 5829 5827 5825 5824 5826 5826 5826 5826 5826 5826 5826 5825 5825 5824 5823 5822 5821 5820 5819 5818 5817 5816 5815 5814 5813 5813 5813 5813 5812 5812 5812 5812 5812 5813 5813 5814 5815 5815 5815
5825 5827 5828 5828 5828 5827 5827 5827 5826 5824 5823 5823 5822 5821 5822 5823 5822 5822 5821 5821 5821 5820 5819 5818 5817 5816 5815 5814 5813 5812 5811 5810 5809 5808 5807 5807 5807 5806 5806 5806 5806 5806 5806 5806 5806 5807 5807 5808 5809
5822 5823 5824 5824 5823 5823 5822 5822 5820 5817 5817 5818 5818 5818 5818 5818 5817 5817 5817 5817 5816 5815 5814 5813 5811 5810 5809 5808 5807 5806 5805 5804 5803 5802 5801 5801 5800 5800 5800 5799 5799 5799 5799 5799 5799 5799 5800 5801 5801
5818 5819 5820 5820 5819 5818 5818 5816 5813 5812 5813 5813 5814 5815 5814 5813 5813 5812 5812 5811 5811 5810 5808 5807 5805 5804 5803 5802 5801 5800 5799 5797 5796 5796 5795 5794 5794 5793 5793 5792 5792 5792 5792 5792 5792 5792 5792 5793 5793
5815 5816 5816 5816 5816 5815 5814 5814 5810 5809 5810 5810 5809 5810 5810 5809 5808 5807 5806 5805 5805 5804 5803 5801 5799 5798 5796 5795 5794 5793 5792 5791 5790 5789 5788 5788 5787 5786 5786 5785 5785 5784 5784 5784 5784 5784 5784 5785 5785
5810 5811 5812 5812 5812 5812 5810 5811 5808 5806 5805 5805 5805 5805 5805 5804 5803 5802 5800 5799 5798 5797 5796 5794 5793 5791 5790 5789 5788 5787 5785 5784 5783 5782 5781 5781 5780 5779 5778 5778 5777 5777 5776 5776 5776 5776 5776 5776 5777